timestamp,wind_dir_avg,wind_spd_avg,wind_spd_max_dir,wind_spd_gust,battery_voltage,lat,long
2022-06-30 00:04:00+00:00,210.0,7.58,214.0,8.83,13.13,47.59359,-54.27349
2022-06-30 00:14:00+00:00,184.0,4.51,209.0,5.48,12.65,47.59359,-54.27349
2022-06-30 00:24:00+00:00,211.0,6.62,212.0,6.63,12.65,47.59359,-54.27349
2022-06-30 00:34:00+00:00,216.0,6.33,217.0,6.34,12.65,47.59359,-54.27349
2022-06-30 00:44:00+00:00,195.0,5.12,210.0,5.75,12.65,47.59359,-54.27349
2022-06-30 00:54:00+00:00,184.0,4.76,208.0,5.98,12.65,47.59359,-54.27349
2022-06-30 01:04:00+00:00,160.0,3.35,215.0,4.23,12.65,47.59359,-54.27349
2022-06-30 01:14:00+00:00,202.0,3.62,217.0,4.37,12.41,47.59359,-54.27349
2022-06-30 01:24:00+00:00,139.0,2.54,134.0,2.87,12.41,47.59359,-54.27349
2022-06-30 01:34:00+00:00,109.0,2.54,111.0,2.97,12.41,47.59359,-54.27349
2022-06-30 01:44:00+00:00,114.0,2.84,115.0,3.1,12.41,47.59359,-54.27349
2022-06-30 01:54:00+00:00,194.0,1.75,202.0,1.91,12.41,47.59359,-54.27349
2022-06-30 02:04:00+00:00,189.0,2.25,190.0,2.69,12.41,47.59359,-54.27349
2022-06-30 02:14:01+00:00,191.0,2.03,197.0,2.36,12.41,47.59359,-54.27349
2022-06-30 02:24:01+00:00,111.0,2.45,112.0,2.69,12.41,47.59359,-54.27349
2022-06-30 02:34:01+00:00,112.0,1.75,103.0,2.85,12.41,47.59359,-54.27349
2022-06-30 02:44:01+00:00,192.0,1.3,190.0,1.39,12.41,47.59359,-54.27349
2022-06-30 02:54:01+00:00,180.0,1.76,176.0,1.92,12.41,47.59359,-54.27349
2022-06-30 03:04:01+00:00,186.0,2.02,140.0,2.52,12.41,47.59359,-54.27349
2022-06-30 03:14:00+00:00,191.0,2.2,160.0,2.83,12.41,47.59359,-54.27349
2022-06-30 03:24:00+00:00,160.0,3.07,158.0,3.72,12.41,47.59359,-54.27349
2022-06-30 03:34:00+00:00,161.0,3.02,147.0,3.45,12.41,47.59359,-54.27349
2022-06-30 03:44:00+00:00,146.0,2.64,136.0,3.08,12.41,47.59359,-54.27349
2022-06-30 03:54:00+00:00,203.0,1.8,207.0,2.05,12.41,47.59359,-54.27349
2022-06-30 04:04:00+00:00,194.0,2.2,198.0,2.58,12.41,47.59359,-54.27349
2022-06-30 04:14:00+00:00,190.0,2.38,204.0,2.8,12.41,47.59359,-54.27349
2022-06-30 04:24:00+00:00,193.0,2.21,201.0,2.63,12.41,47.59359,-54.27349
2022-06-30 04:34:00+00:00,202.0,1.84,224.0,2.27,12.41,47.59359,-54.27349
2022-06-30 04:44:00+00:00,203.0,1.52,210.0,1.71,12.41,47.59359,-54.27349
2022-06-30 04:54:00+00:00,156.0,0.98,158.0,1.08,12.41,47.59359,-54.27349
2022-06-30 05:04:00+00:00,190.0,1.27,190.0,1.42,12.41,47.59359,-54.27349
2022-06-30 05:14:00+00:00,265.0,1.07,266.0,1.26,12.33,47.59359,-54.27349
2022-06-30 05:24:00+00:00,180.0,0.31,258.0,1.61,12.33,47.59359,-54.27349
2022-06-30 05:34:00+00:00,261.0,0.97,265.0,1.57,12.33,47.59359,-54.27349
2022-06-30 05:44:00+00:00,200.0,0.9,203.0,1.07,12.33,47.59359,-54.27349
2022-06-30 05:54:00+00:00,216.0,1.54,215.0,1.62,12.33,47.59359,-54.27349
2022-06-30 06:04:00+00:00,205.0,1.55,227.0,1.96,12.33,47.59359,-54.27349
2022-06-30 06:14:00+00:00,218.0,2.1,224.0,2.47,12.33,47.59359,-54.27349
2022-06-30 06:24:00+00:00,229.0,2.04,236.0,2.38,12.33,47.59359,-54.27349
2022-06-30 06:34:00+00:00,216.0,2.8,221.0,3.16,12.33,47.59359,-54.27349
2022-06-30 06:44:00+00:00,220.0,1.97,219.0,2.31,12.33,47.59359,-54.27349
2022-06-30 06:54:00+00:00,218.0,2.6,223.0,2.92,12.33,47.59359,-54.27349
2022-06-30 07:04:00+00:00,203.0,2.35,202.0,2.49,12.33,47.59359,-54.27349
2022-06-30 07:14:01+00:00,215.0,2.99,222.0,3.34,12.25,47.59359,-54.27349
2022-06-30 07:24:01+00:00,221.0,3.19,221.0,3.43,12.25,47.59359,-54.27349
2022-06-30 07:34:01+00:00,315.0,0.01,205.0,0.0,12.25,47.59359,-54.27349
2022-06-30 07:44:01+00:00,315.0,0.01,205.0,0.0,12.25,47.59359,-54.27349
2022-06-30 07:54:01+00:00,315.0,0.01,205.0,0.0,12.25,47.59359,-54.27349
2022-06-30 08:04:01+00:00,315.0,0.01,205.0,0.0,12.25,47.59359,-54.27349
2022-06-30 08:14:00+00:00,315.0,0.01,205.0,0.0,12.25,47.59359,-54.27349
2022-06-30 08:24:00+00:00,315.0,0.01,205.0,0.0,12.25,47.59359,-54.27349
2022-06-30 08:34:00+00:00,189.0,2.15,205.0,2.37,12.25,47.59359,-54.27349
2022-06-30 08:44:00+00:00,315.0,0.01,207.0,0.0,12.25,47.59359,-54.27349
2022-06-30 08:54:00+00:00,223.0,2.33,223.0,2.62,12.25,47.59359,-54.27349
2022-06-30 09:04:00+00:00,315.0,0.01,230.0,0.0,12.25,47.59359,-54.27349
2022-06-30 09:14:00+00:00,315.0,0.01,198.0,0.0,12.33,47.59359,-54.27349
2022-06-30 09:24:00+00:00,315.0,0.01,198.0,0.0,12.33,47.59359,-54.27349
2022-06-30 09:34:00+00:00,315.0,0.01,198.0,0.0,12.33,47.59359,-54.27349
2022-06-30 09:44:00+00:00,315.0,0.01,198.0,0.0,12.33,47.59359,-54.27349
2022-06-30 09:54:00+00:00,181.0,2.47,183.0,2.63,12.33,47.59359,-54.27349
2022-06-30 10:04:00+00:00,168.0,1.41,170.0,1.65,12.33,47.59359,-54.27349
2022-06-30 10:14:01+00:00,212.0,1.45,220.0,1.63,13.29,47.59359,-54.27349
2022-06-30 10:24:01+00:00,273.0,1.35,273.0,1.7,13.29,47.59359,-54.27349
2022-06-30 10:34:01+00:00,243.0,1.13,249.0,1.48,13.29,47.59359,-54.27349
2022-06-30 10:44:01+00:00,229.0,1.73,229.0,2.09,13.29,47.59359,-54.27349
2022-06-30 10:54:01+00:00,207.0,1.91,208.0,2.17,13.29,47.59359,-54.27349
2022-06-30 11:04:01+00:00,184.0,1.37,175.0,1.6,13.29,47.59359,-54.27349
2022-06-30 11:14:00+00:00,208.0,0.96,205.0,1.16,13.44,47.59359,-54.27349
2022-06-30 11:24:00+00:00,226.0,0.24,213.0,0.44,13.44,47.59359,-54.27349
2022-06-30 11:34:00+00:00,263.0,0.27,232.0,0.38,13.44,47.59359,-54.27349
2022-06-30 11:44:00+00:00,246.0,1.13,230.0,1.44,13.44,47.59359,-54.27349
2022-06-30 11:54:00+00:00,228.0,0.36,235.0,0.59,13.44,47.59359,-54.27349
2022-06-30 12:04:00+00:00,203.0,0.59,225.0,1.2,13.44,47.59359,-54.27349
2022-06-30 13:14:00+00:00,15.0,1.3,15.0,1.59,14.24,47.59359,-54.27349
2022-06-30 13:24:00+00:00,36.0,2.0,37.0,2.29,14.24,47.59359,-54.27349
2022-06-30 13:34:00+00:00,27.0,0.83,32.0,1.12,14.24,47.59359,-54.27349
2022-06-30 13:44:00+00:00,20.0,1.42,27.0,1.75,14.24,47.59359,-54.27349
2022-06-30 13:54:00+00:00,350.0,1.76,352.0,2.03,14.24,47.59359,-54.27349
2022-06-30 14:04:00+00:00,10.0,1.25,358.0,1.52,14.24,47.59359,-54.27349
2022-06-30 14:14:00+00:00,15.0,1.38,21.0,1.5,13.84,47.59359,-54.27349
2022-06-30 14:24:00+00:00,41.0,1.36,41.0,1.85,13.84,47.59359,-54.27349
2022-06-30 14:34:00+00:00,42.0,1.3,50.0,1.67,13.84,47.59359,-54.27349
2022-06-30 14:44:00+00:00,44.0,2.43,44.0,2.67,13.84,47.59359,-54.27349
2022-06-30 14:54:00+00:00,49.0,1.79,46.0,2.04,13.84,47.59359,-54.27349
2022-06-30 15:04:00+00:00,75.0,0.59,65.0,0.91,13.84,47.59359,-54.27349
2022-06-30 15:14:01+00:00,32.0,1.27,32.0,1.84,14.24,47.59359,-54.27349
2022-06-30 15:24:01+00:00,34.0,2.23,36.0,2.5,14.24,47.59359,-54.27349
2022-06-30 15:34:01+00:00,29.0,1.72,29.0,1.97,14.24,47.59359,-54.27349
2022-06-30 15:44:01+00:00,1.0,0.91,356.0,1.12,14.24,47.59359,-54.27349
2022-06-30 15:54:01+00:00,271.0,0.96,275.0,1.05,14.24,47.59359,-54.27349
2022-06-30 16:04:01+00:00,256.0,0.56,257.0,0.68,14.24,47.59359,-54.27349
2022-06-30 16:14:00+00:00,258.0,0.98,261.0,1.23,14.24,47.59359,-54.27349
2022-06-30 16:24:00+00:00,289.0,1.47,291.0,1.69,14.24,47.59359,-54.27349
2022-06-30 16:34:00+00:00,287.0,1.23,286.0,1.68,14.24,47.59359,-54.27349
2022-06-30 16:44:00+00:00,280.0,0.69,281.0,1.32,14.24,47.59359,-54.27349
2022-06-30 16:54:00+00:00,267.0,0.99,272.0,1.31,14.24,47.59359,-54.27349
2022-06-30 17:04:00+00:00,246.0,0.44,239.0,0.54,14.24,47.59359,-54.27349
2022-06-30 17:14:00+00:00,204.0,1.85,203.0,1.94,13.84,47.59359,-54.27349
2022-06-30 17:24:00+00:00,192.0,2.13,195.0,2.2,13.84,47.59359,-54.27349
2022-06-30 17:34:00+00:00,191.0,3.6,189.0,3.84,13.84,47.59359,-54.27349
2022-06-30 17:44:00+00:00,180.0,2.6,200.0,2.85,13.84,47.59359,-54.27349
2022-06-30 17:54:00+00:00,226.0,1.9,242.0,2.66,13.84,47.59359,-54.27349
2022-06-30 18:04:00+00:00,217.0,1.64,233.0,2.71,13.84,47.59359,-54.27349
2022-06-30 18:14:01+00:00,214.0,1.17,239.0,1.94,13.68,47.59359,-54.27349
2022-06-30 18:24:01+00:00,231.0,1.86,245.0,3.1,13.68,47.59359,-54.27349
2022-06-30 18:34:01+00:00,129.0,1.96,125.0,2.83,13.68,47.59359,-54.27349
2022-06-30 18:44:01+00:00,199.0,2.38,207.0,3.26,13.68,47.59359,-54.27349
2022-06-30 18:54:01+00:00,194.0,3.06,207.0,3.52,13.68,47.59359,-54.27349
2022-06-30 19:04:01+00:00,202.0,0.72,205.0,1.02,13.68,47.59359,-54.27349
2022-06-30 19:14:00+00:00,208.0,2.25,210.0,2.43,13.68,47.59359,-54.27349
2022-06-30 19:24:00+00:00,219.0,1.66,214.0,1.93,13.68,47.59359,-54.27349
2022-06-30 19:34:00+00:00,226.0,1.53,226.0,1.88,13.68,47.59359,-54.27349
2022-06-30 19:44:00+00:00,242.0,1.49,246.0,1.64,13.68,47.59359,-54.27349
2022-06-30 19:54:00+00:00,208.0,1.76,207.0,1.93,13.68,47.59359,-54.27349
2022-06-30 20:04:00+00:00,243.0,0.98,232.0,1.39,13.68,47.59359,-54.27349
2022-06-30 20:14:00+00:00,226.0,1.62,226.0,1.74,13.68,47.59359,-54.27349
2022-06-30 20:24:00+00:00,238.0,1.43,226.0,1.59,13.68,47.59359,-54.27349
2022-06-30 20:34:00+00:00,270.0,0.97,265.0,1.14,13.68,47.59359,-54.27349
2022-06-30 20:44:00+00:00,198.0,0.33,212.0,0.43,13.68,47.59359,-54.27349
2022-06-30 20:54:00+00:00,315.0,0.01,247.0,0.0,13.68,47.59359,-54.27349
2022-06-30 21:04:00+00:00,315.0,0.01,226.0,0.0,13.68,47.59359,-54.27349
2022-06-30 21:14:00+00:00,315.0,0.01,226.0,0.0,13.37,47.59359,-54.27349
2022-06-30 21:24:00+00:00,215.0,2.5,223.0,3.02,13.37,47.59359,-54.27349
2022-06-30 21:34:00+00:00,315.0,0.01,224.0,0.0,13.37,47.59359,-54.27349
2022-06-30 21:44:00+00:00,182.0,2.16,183.0,2.16,13.37,47.59359,-54.27349
2022-06-30 21:54:00+00:00,315.0,0.01,185.0,0.0,13.37,47.59359,-54.27349
2022-06-30 22:04:00+00:00,183.0,2.21,184.0,2.22,13.37,47.59359,-54.27349
2022-06-30 22:14:00+00:00,188.0,3.04,169.0,5.04,12.89,47.59359,-54.27349
2022-06-30 22:24:00+00:00,211.0,5.06,210.0,5.52,12.89,47.59359,-54.27349
2022-06-30 22:34:00+00:00,225.0,3.06,225.0,3.39,12.89,47.59359,-54.27349
2022-06-30 22:44:00+00:00,218.0,3.03,220.0,3.39,12.89,47.59359,-54.27349
2022-06-30 22:54:00+00:00,209.0,1.87,208.0,2.31,12.89,47.59359,-54.27349
2022-06-30 23:04:00+00:00,214.0,1.0,218.0,1.35,12.89,47.59359,-54.27349
2022-06-30 23:14:00+00:00,194.0,1.32,189.0,1.57,12.49,47.59359,-54.27349
2022-06-30 23:24:00+00:00,231.0,1.41,225.0,1.75,12.49,47.59359,-54.27349
2022-06-30 23:34:00+00:00,276.0,0.55,279.0,0.67,12.49,47.59359,-54.27349
2022-06-30 23:44:00+00:00,173.0,0.36,162.0,0.63,12.49,47.59359,-54.27349
2022-06-30 23:54:00+00:00,64.0,1.34,51.0,1.63,12.49,47.59359,-54.27349
